owner,sensor,date,latitude,longitude,vertical_datum,wind_speed,wind_to_direction,wind_speed_of_gust,qcFlag 
NDBC,ioos:station:wmo:42003:1,2012-12-01T00:00:00Z,26.0070,-85.6480,5.0,8.7,70.0,,'1111122,1111122,1111122' 
NDBC,ioos:station:wmo:42003:1,2012-12-01T01:00:00Z,26.0070,-85.6480,5.0,8.7,80.0,,'1111122,1111122,1111122' 
NDBC,ioos:station:wmo:42003:1,2012-12-01T03:00:00Z,26.0070,-85.6480,5.0,8.7,80.0,,'1111122,1111122,1111122' 
NDBC,ioos:station:wmo:42003:1,2012-12-01T04:00:00Z,26.0070,-85.6480,5.0,7.7,80.0,,'1111122,1111122,1111122' 
NDBC,ioos:station:wmo:42003:1,2012-12-01T05:00:00Z,26.0070,-85.6480,5.0,6.7,80.0,,'1111122,1111122,1111122' 
NDBC,ioos:station:wmo:42003:1,2012-12-01T06:00:00Z,26.0070,-85.6480,5.0,6.7,70.0,,'1111122,1111122,1111122' 
NDBC,ioos:station:wmo:42003:1,2012-12-01T07:00:00Z,26.0070,-85.6480,5.0,6.7,70.0,,'1111122,1111122,1111122' 
NDBC,ioos:station:wmo:42003:1,2012-12-01T08:00:00Z,26.0070,-85.6480,5.0,7.7,80.0,,'1111122,1111122,1111122' 
NDBC,ioos:station:wmo:42003:1,2012-12-01T09:00:00Z,26.0070,-85.6480,5.0,6.7,80.0,,'1111122,1111122,1111122' 
NDBC,ioos:station:wmo:42003:1,2012-12-01T10:00:00Z,26.0070,-85.6480,5.0,6.7,80.0,,'1111122,1111122,1111122' 
NDBC,ioos:station:wmo:42003:1,2012-12-01T11:00:00Z,26.0070,-85.6480,5.0,6.7,90.0,,'1111122,1111122,1111122' 
NDBC,ioos:station:wmo:42003:1,2012-12-01T12:00:00Z,26.0070,-85.6480,5.0,7.7,80.0,,'1111122,1111122,1111122' 
NDBC,ioos:station:wmo:42003:1,2012-12-01T13:00:00Z,26.0070,-85.6480,5.0,7.7,90.0,,'1111122,1111122,1111122' 
NDBC,ioos:station:wmo:42003:1,2012-12-01T14:00:00Z,26.0070,-85.6480,5.0,7.7,80.0,,'1111122,1111122,1111122' 
NDBC,ioos:station:wmo:42003:1,2012-12-01T15:00:00Z,26.0070,-85.6480,5.0,7.7,80.0,,'1111122,1111122,1111122' 
NDBC,ioos:station:wmo:42003:1,2012-12-01T16:00:00Z,26.0070,-85.6480,5.0,7.7,80.0,,'1111122,1111122,1111122' 
NDBC,ioos:station:wmo:42003:1,2012-12-01T17:00:00Z,26.0070,-85.6480,5.0,7.7,80.0,,'1111122,1111122,1111122' 
NDBC,ioos:station:wmo:42003:1,2012-12-01T18:00:00Z,26.0070,-85.6480,5.0,7.7,70.0,,'1111122,1111122,1111122' 
NDBC,ioos:station:wmo:42003:1,2012-12-01T19:00:00Z,26.0070,-85.6480,5.0,7.7,80.0,,'1111122,1111122,1111122' 
NDBC,ioos:station:wmo:42003:1,2012-12-01T20:00:00Z,26.0070,-85.6480,5.0,7.7,80.0,,'1111122,1111122,1111122' 
NDBC,ioos:station:wmo:42003:1,2012-12-01T21:00:00Z,26.0070,-85.6480,5.0,7.7,70.0,,'1111122,1111122,1111122' 
NDBC,ioos:station:wmo:42003:1,2012-12-01T22:00:00Z,26.0070,-85.6480,5.0,7.7,70.0,,'1111122,1111122,1111122' 
NDBC,ioos:station:wmo:42003:1,2012-12-01T23:00:00Z,26.0070,-85.6480,5.0,7.7,70.0,,'1111122,1111122,1111122' 
NDBC,ioos:station:wmo:42003:1,2012-12-02T00:00:00Z,26.0070,-85.6480,5.0,6.7,70.0,,'1111122,1111122,1111122' 
NDBC,ioos:station:wmo:42003:1,2012-12-02T01:00:00Z,26.0070,-85.6480,5.0,6.7,70.0,,'1111122,1111122,1111122' 
NDBC,ioos:station:wmo:42003:1,2012-12-02T02:00:00Z,26.0070,-85.6480,5.0,5.7,50.0,,'1111122,1111122,1111122' 
NDBC,ioos:station:wmo:42003:1,2012-12-02T03:00:00Z,26.0070,-85.6480,5.0,5.7,60.0,,'1111122,1111122,1111122' 
NDBC,ioos:station:wmo:42003:1,2012-12-02T04:00:00Z,26.0070,-85.6480,5.0,6.7,70.0,,'1111122,1111122,1111122' 
NDBC,ioos:station:wmo:42003:1,2012-12-02T05:00:00Z,26.0070,-85.6480,5.0,6.7,60.0,,'1111122,1111122,1111122' 
NDBC,ioos:station:wmo:42003:1,2012-12-02T06:00:00Z,26.0070,-85.6480,5.0,7.7,70.0,,'1111122,1111122,1111122' 
NDBC,ioos:station:wmo:42003:1,2012-12-02T07:00:00Z,26.0070,-85.6480,5.0,6.7,70.0,,'1111122,1111122,1111122' 
NDBC,ioos:station:wmo:42003:1,2012-12-02T08:00:00Z,26.0070,-85.6480,5.0,5.7,80.0,,'1111122,1111122,1111122' 
NDBC,ioos:station:wmo:42003:1,2012-12-02T09:00:00Z,26.0070,-85.6480,5.0,6.7,100.0,,'1111122,1111122,1111122' 
NDBC,ioos:station:wmo:42003:1,2012-12-02T10:00:00Z,26.0070,-85.6480,5.0,7.7,110.0,,'1111122,1111122,1111122' 
NDBC,ioos:station:wmo:42003:1,2012-12-02T11:00:00Z,26.0070,-85.6480,5.0,6.7,120.0,,'1111122,1111122,1111122' 
NDBC,ioos:station:wmo:42003:1,2012-12-02T12:00:00Z,26.0070,-85.6480,5.0,7.7,100.0,,'1111122,1111122,1111122' 
NDBC,ioos:station:wmo:42003:1,2012-12-02T13:00:00Z,26.0070,-85.6480,5.0,7.7,100.0,,'1111122,1111122,1111122' 
NDBC,ioos:station:wmo:42003:1,2012-12-02T14:00:00Z,26.0070,-85.6480,5.0,7.7,90.0,,'1111122,1111122,1111122' 
NDBC,ioos:station:wmo:42003:1,2012-12-02T15:00:00Z,26.0070,-85.6480,5.0,7.7,90.0,,'1111122,1111122,1111122' 
NDBC,ioos:station:wmo:42003:1,2012-12-02T16:00:00Z,26.0070,-85.6480,5.0,7.7,80.0,,'1111122,1111122,1111122' 
NDBC,ioos:station:wmo:42003:1,2012-12-02T17:00:00Z,26.0070,-85.6480,5.0,7.7,80.0,,'1111122,1111122,1111122' 
NDBC,ioos:station:wmo:42003:1,2012-12-02T18:00:00Z,26.0070,-85.6480,5.0,6.7,80.0,,'1111122,1111122,1111122' 
NDBC,ioos:station:wmo:42003:1,2012-12-02T19:00:00Z,26.0070,-85.6480,5.0,5.7,80.0,,'1111122,1111122,1111122' 
NDBC,ioos:station:wmo:42003:1,2012-12-02T20:00:00Z,26.0070,-85.6480,5.0,6.7,70.0,,'1111122,1111122,1111122' 
NDBC,ioos:station:wmo:42003:1,2012-12-02T21:00:00Z,26.0070,-85.6480,5.0,6.7,70.0,,'1111122,1111122,1111122' 
NDBC,ioos:station:wmo:42003:1,2012-12-02T22:00:00Z,26.0070,-85.6480,5.0,7.7,80.0,,'1111122,1111122,1111122' 
NDBC,ioos:station:wmo:42003:1,2012-12-02T23:00:00Z,26.0070,-85.6480,5.0,7.7,80.0,,'1111122,1111122,1111122' 
NDBC,ioos:station:wmo:42003:1,2012-12-03T00:00:00Z,26.0070,-85.6480,5.0,7.7,80.0,,'1111122,1111122,1111122' 
NDBC,ioos:station:wmo:42003:1,2012-12-03T01:00:00Z,26.0070,-85.6480,5.0,7.7,90.0,,'1111122,1111122,1111122' 
NDBC,ioos:station:wmo:42003:1,2012-12-03T02:00:00Z,26.0070,-85.6480,5.0,6.7,90.0,,'1111122,1111122,1111122' 
NDBC,ioos:station:wmo:42003:1,2012-12-03T03:00:00Z,26.0070,-85.6480,5.0,6.7,80.0,,'1111122,1111122,1111122' 
NDBC,ioos:station:wmo:42003:1,2012-12-03T04:00:00Z,26.0070,-85.6480,5.0,6.7,80.0,,'1111122,1111122,1111122' 
NDBC,ioos:station:wmo:42003:1,2012-12-03T05:00:00Z,26.0070,-85.6480,5.0,6.7,90.0,,'1111122,1111122,1111122' 
NDBC,ioos:station:wmo:42003:1,2012-12-03T06:00:00Z,26.0070,-85.6480,5.0,6.7,80.0,,'1111122,1111122,1111122' 
NDBC,ioos:station:wmo:42003:1,2012-12-03T07:00:00Z,26.0070,-85.6480,5.0,6.7,80.0,,'1111122,1111122,1111122' 
NDBC,ioos:station:wmo:42003:1,2012-12-03T08:00:00Z,26.0070,-85.6480,5.0,6.7,80.0,,'1111122,1111122,1111122' 
NDBC,ioos:station:wmo:42003:1,2012-12-03T09:00:00Z,26.0070,-85.6480,5.0,7.7,90.0,,'1111122,1111122,1111122' 
NDBC,ioos:station:wmo:42003:1,2012-12-03T10:00:00Z,26.0070,-85.6480,5.0,6.7,100.0,,'1111122,1111122,1111122' 
NDBC,ioos:station:wmo:42003:1,2012-12-03T11:00:00Z,26.0070,-85.6480,5.0,7.7,110.0,,'1111122,1111122,1111122' 
NDBC,ioos:station:wmo:42003:1,2012-12-03T12:00:00Z,26.0070,-85.6480,5.0,7.7,110.0,,'1111122,1111122,1111122' 
NDBC,ioos:station:wmo:42003:1,2012-12-03T13:00:00Z,26.0070,-85.6480,5.0,7.7,100.0,,'1111122,1111122,1111122' 
NDBC,ioos:station:wmo:42003:1,2012-12-03T14:00:00Z,26.0070,-85.6480,5.0,7.7,100.0,,'1111122,1111122,1111122' 
NDBC,ioos:station:wmo:42003:1,2012-12-03T15:00:00Z,26.0070,-85.6480,5.0,7.7,90.0,,'1111122,1111122,1111122' 
NDBC,ioos:station:wmo:42003:1,2012-12-03T16:00:00Z,26.0070,-85.6480,5.0,8.7,90.0,,'1111122,1111122,1111122' 
NDBC,ioos:station:wmo:42003:1,2012-12-03T17:00:00Z,26.0070,-85.6480,5.0,7.7,80.0,,'1111122,1111122,1111122' 
NDBC,ioos:station:wmo:42003:1,2012-12-03T18:00:00Z,26.0070,-85.6480,5.0,7.7,90.0,,'1111122,1111122,1111122' 
NDBC,ioos:station:wmo:42003:1,2012-12-03T19:00:00Z,26.0070,-85.6480,5.0,7.7,90.0,,'1111122,1111122,1111122' 
NDBC,ioos:station:wmo:42003:1,2012-12-03T20:00:00Z,26.0070,-85.6480,5.0,7.7,90.0,,'1111122,1111122,1111122' 
NDBC,ioos:station:wmo:42003:1,2012-12-03T21:00:00Z,26.0070,-85.6480,5.0,7.7,90.0,,'1111122,1111122,1111122' 
NDBC,ioos:station:wmo:42003:1,2012-12-03T22:00:00Z,26.0070,-85.6480,5.0,8.7,80.0,,'1111122,1111122,1111122' 
NDBC,ioos:station:wmo:42003:1,2012-12-03T23:00:00Z,26.0070,-85.6480,5.0,8.7,90.0,,'1111122,1111122,1111122' 
NDBC,ioos:station:wmo:42003:1,2012-12-04T00:00:00Z,26.0070,-85.6480,5.0,8.7,90.0,,'1111122,1111122,1111122' 
NDBC,ioos:station:wmo:42003:1,2012-12-04T01:00:00Z,26.0070,-85.6480,5.0,8.7,90.0,,'1111122,1111122,1111122' 
NDBC,ioos:station:wmo:42003:1,2012-12-04T03:00:00Z,26.0070,-85.6480,5.0,7.7,100.0,,'1111122,1111122,1111122' 
NDBC,ioos:station:wmo:42003:1,2012-12-04T04:00:00Z,26.0070,-85.6480,5.0,7.7,100.0,,'1111122,1111122,1111122' 
NDBC,ioos:station:wmo:42003:1,2012-12-04T05:00:00Z,26.0070,-85.6480,5.0,7.7,100.0,,'1111122,1111122,1111122' 
NDBC,ioos:station:wmo:42003:1,2012-12-04T06:00:00Z,26.0070,-85.6480,5.0,7.7,90.0,,'1111122,1111122,1111122' 
NDBC,ioos:station:wmo:42003:1,2012-12-04T07:00:00Z,26.0070,-85.6480,5.0,8.7,90.0,,'1111122,1111122,1111122' 
NDBC,ioos:station:wmo:42003:1,2012-12-04T08:00:00Z,26.0070,-85.6480,5.0,7.7,90.0,,'1111122,1111122,1111122' 
NDBC,ioos:station:wmo:42003:1,2012-12-04T09:00:00Z,26.0070,-85.6480,5.0,7.7,90.0,,'1111122,1111122,1111122' 
NDBC,ioos:station:wmo:42003:1,2012-12-04T10:00:00Z,26.0070,-85.6480,5.0,8.7,90.0,,'1111122,1111122,1111122' 
NDBC,ioos:station:wmo:42003:1,2012-12-04T11:00:00Z,26.0070,-85.6480,5.0,8.7,90.0,,'1111122,1111122,1111122' 
NDBC,ioos:station:wmo:42003:1,2012-12-04T12:00:00Z,26.0070,-85.6480,5.0,8.7,100.0,,'1111122,1111122,1111122' 
NDBC,ioos:station:wmo:42003:1,2012-12-04T13:00:00Z,26.0070,-85.6480,5.0,8.7,90.0,,'1111122,1111122,1111122' 
NDBC,ioos:station:wmo:42003:1,2012-12-04T14:00:00Z,26.0070,-85.6480,5.0,7.7,100.0,,'1111122,1111122,1111122' 
NDBC,ioos:station:wmo:42003:1,2012-12-04T15:00:00Z,26.0070,-85.6480,5.0,8.7,100.0,,'1111122,1111122,1111122' 
NDBC,ioos:station:wmo:42003:1,2012-12-04T16:00:00Z,26.0070,-85.6480,5.0,8.7,90.0,,'1111122,1111122,1111122' 
NDBC,ioos:station:wmo:42003:1,2012-12-04T17:00:00Z,26.0070,-85.6480,5.0,7.7,90.0,,'1111122,1111122,1111122' 
NDBC,ioos:station:wmo:42003:1,2012-12-04T18:00:00Z,26.0070,-85.6480,5.0,7.7,90.0,,'1111122,1111122,1111122' 
NDBC,ioos:station:wmo:42003:1,2012-12-04T19:00:00Z,26.0070,-85.6480,5.0,6.7,90.0,,'1111122,1111122,1111122' 
NDBC,ioos:station:wmo:42003:1,2012-12-04T20:00:00Z,26.0070,-85.6480,5.0,5.7,90.0,,'1111122,1111122,1111122' 
NDBC,ioos:station:wmo:42003:1,2012-12-04T21:00:00Z,26.0070,-85.6480,5.0,5.7,100.0,,'1111122,1111122,1111122' 
NDBC,ioos:station:wmo:42003:1,2012-12-04T22:00:00Z,26.0070,-85.6480,5.0,6.7,90.0,,'1111122,1111122,1111122' 
NDBC,ioos:station:wmo:42003:1,2012-12-04T23:00:00Z,26.0070,-85.6480,5.0,5.7,100.0,,'1111122,1111122,1111122' 
NDBC,ioos:station:wmo:42003:1,2012-12-05T00:00:00Z,26.0070,-85.6480,5.0,6.7,100.0,,'1111122,1111122,1111122' 
NDBC,ioos:station:wmo:42003:1,2012-12-05T01:00:00Z,26.0070,-85.6480,5.0,6.7,80.0,,'1111122,1111122,1111122' 
NDBC,ioos:station:wmo:42003:1,2012-12-05T02:00:00Z,26.0070,-85.6480,5.0,7.7,100.0,,'1111122,1111122,1111122' 
NDBC,ioos:station:wmo:42003:1,2012-12-05T03:00:00Z,26.0070,-85.6480,5.0,6.7,100.0,,'1111122,1111122,1111122' 
NDBC,ioos:station:wmo:42003:1,2012-12-05T04:00:00Z,26.0070,-85.6480,5.0,6.7,100.0,,'1111122,1111122,1111122' 
NDBC,ioos:station:wmo:42003:1,2012-12-05T05:00:00Z,26.0070,-85.6480,5.0,7.7,100.0,,'1111122,1111122,1111122' 
NDBC,ioos:station:wmo:42003:1,2012-12-05T06:00:00Z,26.0070,-85.6480,5.0,7.7,100.0,,'1111122,1111122,1111122' 
NDBC,ioos:station:wmo:42003:1,2012-12-05T07:00:00Z,26.0070,-85.6480,5.0,7.7,100.0,,'1111122,1111122,1111122' 
NDBC,ioos:station:wmo:42003:1,2012-12-05T08:00:00Z,26.0070,-85.6480,5.0,6.7,100.0,,'1111122,1111122,1111122' 
NDBC,ioos:station:wmo:42003:1,2012-12-05T09:00:00Z,26.0070,-85.6480,5.0,6.7,110.0,,'1111122,1111122,1111122' 
NDBC,ioos:station:wmo:42003:1,2012-12-05T10:00:00Z,26.0070,-85.6480,5.0,7.7,100.0,,'1111122,1111122,1111122' 
NDBC,ioos:station:wmo:42003:1,2012-12-05T11:00:00Z,26.0070,-85.6480,5.0,6.7,130.0,,'1111122,1111122,1111122' 
NDBC,ioos:station:wmo:42003:1,2012-12-05T12:00:00Z,26.0070,-85.6480,5.0,6.7,110.0,,'1111122,1111122,1111122' 
NDBC,ioos:station:wmo:42003:1,2012-12-05T13:00:00Z,26.0070,-85.6480,5.0,5.7,100.0,,'1111122,1111122,1111122' 
NDBC,ioos:station:wmo:42003:1,2012-12-05T14:00:00Z,26.0070,-85.6480,5.0,5.7,100.0,,'1111122,1111122,1111122' 
NDBC,ioos:station:wmo:42003:1,2012-12-05T15:00:00Z,26.0070,-85.6480,5.0,6.7,110.0,,'1111122,1111122,1111122' 
NDBC,ioos:station:wmo:42003:1,2012-12-05T16:00:00Z,26.0070,-85.6480,5.0,6.7,110.0,,'1111122,1111122,1111122' 
NDBC,ioos:station:wmo:42003:1,2012-12-05T17:00:00Z,26.0070,-85.6480,5.0,6.7,100.0,,'1111122,1111122,1111122' 
NDBC,ioos:station:wmo:42003:1,2012-12-05T20:00:00Z,26.0070,-85.6480,5.0,6.7,110.0,,'1111122,1111122,1111122' 
NDBC,ioos:station:wmo:42003:1,2012-12-05T21:00:00Z,26.0070,-85.6480,5.0,5.7,120.0,,'1111122,1111122,1111122' 
NDBC,ioos:station:wmo:42003:1,2012-12-05T23:00:00Z,26.0070,-85.6480,5.0,6.7,110.0,,'1111122,1111122,1111122' 
NDBC,ioos:station:wmo:42003:1,2012-12-06T00:00:00Z,26.0070,-85.6480,5.0,4.6,80.0,,'1111122,1111122,1111122' 
NDBC,ioos:station:wmo:42003:1,2012-12-06T01:00:00Z,26.0070,-85.6480,5.0,5.7,100.0,,'1111122,1111122,1111122' 
NDBC,ioos:station:wmo:42003:1,2012-12-06T02:00:00Z,26.0070,-85.6480,5.0,4.6,100.0,,'1111122,1111122,1111122' 
NDBC,ioos:station:wmo:42003:1,2012-12-06T03:00:00Z,26.0070,-85.6480,5.0,5.7,60.0,,'1111122,1111122,1111122' 
NDBC,ioos:station:wmo:42003:1,2012-12-06T04:00:00Z,26.0070,-85.6480,5.0,2.6,20.0,,'1111122,1111122,1111122' 
NDBC,ioos:station:wmo:42003:1,2012-12-06T05:00:00Z,26.0070,-85.6480,5.0,4.6,90.0,,'1111122,1111122,1111122' 
NDBC,ioos:station:wmo:42003:1,2012-12-06T06:00:00Z,26.0070,-85.6480,5.0,6.7,110.0,,'1111122,1111122,1111122' 
NDBC,ioos:station:wmo:42003:1,2012-12-06T07:00:00Z,26.0070,-85.6480,5.0,6.7,110.0,,'1111122,1111122,1111122' 
NDBC,ioos:station:wmo:42003:1,2012-12-06T08:00:00Z,26.0070,-85.6480,5.0,5.7,110.0,,'1111122,1111122,1111122' 
NDBC,ioos:station:wmo:42003:1,2012-12-06T09:00:00Z,26.0070,-85.6480,5.0,5.7,120.0,,'1111122,1111122,1111122' 
NDBC,ioos:station:wmo:42003:1,2012-12-06T10:00:00Z,26.0070,-85.6480,5.0,4.6,120.0,,'1111122,1111122,1111122' 
NDBC,ioos:station:wmo:42003:1,2012-12-06T11:00:00Z,26.0070,-85.6480,5.0,5.7,120.0,,'1111122,1111122,1111122' 
NDBC,ioos:station:wmo:42003:1,2012-12-06T12:00:00Z,26.0070,-85.6480,5.0,8.7,120.0,,'1111122,1111122,1111122' 
NDBC,ioos:station:wmo:42003:1,2012-12-06T13:00:00Z,26.0070,-85.6480,5.0,6.7,120.0,,'1111122,1111122,1111122' 
NDBC,ioos:station:wmo:42003:1,2012-12-06T14:00:00Z,26.0070,-85.6480,5.0,5.7,130.0,,'1111122,1111122,1111122' 
NDBC,ioos:station:wmo:42003:1,2012-12-06T15:00:00Z,26.0070,-85.6480,5.0,5.7,130.0,,'1111122,1111122,1111122' 
NDBC,ioos:station:wmo:42003:1,2012-12-06T16:00:00Z,26.0070,-85.6480,5.0,4.6,80.0,,'1111122,1111122,1111122' 
NDBC,ioos:station:wmo:42003:1,2012-12-06T17:00:00Z,26.0070,-85.6480,5.0,7.7,50.0,,'1111122,1111122,1111122' 
NDBC,ioos:station:wmo:42003:1,2012-12-06T18:00:00Z,26.0070,-85.6480,5.0,4.6,60.0,,'1111122,1111122,1111122' 
NDBC,ioos:station:wmo:42003:1,2012-12-06T19:00:00Z,26.0070,-85.6480,5.0,6.7,80.0,,'1111122,1111122,1111122' 
NDBC,ioos:station:wmo:42003:1,2012-12-06T20:00:00Z,26.0070,-85.6480,5.0,3.6,100.0,,'1111122,1111122,1111122' 
NDBC,ioos:station:wmo:42003:1,2012-12-06T21:00:00Z,26.0070,-85.6480,5.0,4.6,120.0,,'1111122,1111122,1111122' 
NDBC,ioos:station:wmo:42003:1,2012-12-06T22:00:00Z,26.0070,-85.6480,5.0,4.6,120.0,,'1111122,1111122,1111122' 
NDBC,ioos:station:wmo:42003:1,2012-12-06T23:00:00Z,26.0070,-85.6480,5.0,5.7,110.0,,'1111122,1111122,1111122' 
NDBC,ioos:station:wmo:42003:1,2012-12-07T00:00:00Z,26.0070,-85.6480,5.0,4.6,100.0,,'1111122,1111122,1111122' 
NDBC,ioos:station:wmo:42003:1,2012-12-07T01:00:00Z,26.0070,-85.6480,5.0,4.6,100.0,,'1111122,1111122,1111122' 
NDBC,ioos:station:wmo:42003:1,2012-12-07T02:00:00Z,26.0070,-85.6480,5.0,4.6,120.0,,'1111122,1111122,1111122' 
NDBC,ioos:station:wmo:42003:1,2012-12-07T03:00:00Z,26.0070,-85.6480,5.0,5.7,120.0,,'1111122,1111122,1111122' 
NDBC,ioos:station:wmo:42003:1,2012-12-07T04:00:00Z,26.0070,-85.6480,5.0,4.6,100.0,,'1111122,1111122,1111122' 
NDBC,ioos:station:wmo:42003:1,2012-12-07T05:00:00Z,26.0070,-85.6480,5.0,4.6,140.0,,'1111122,1111122,1111122' 
NDBC,ioos:station:wmo:42003:1,2012-12-07T06:00:00Z,26.0070,-85.6480,5.0,4.6,140.0,,'1111122,1111122,1111122' 
NDBC,ioos:station:wmo:42003:1,2012-12-07T07:00:00Z,26.0070,-85.6480,5.0,3.6,140.0,,'1111122,1111122,1111122' 
NDBC,ioos:station:wmo:42003:1,2012-12-07T08:00:00Z,26.0070,-85.6480,5.0,2.6,150.0,,'1111122,1111122,1111122' 
NDBC,ioos:station:wmo:42003:1,2012-12-07T09:00:00Z,26.0070,-85.6480,5.0,1.5,150.0,,'1111122,1111122,1111122' 
NDBC,ioos:station:wmo:42003:1,2012-12-07T10:00:00Z,26.0070,-85.6480,5.0,1.5,160.0,,'1111122,1111122,1111122' 
NDBC,ioos:station:wmo:42003:1,2012-12-07T11:00:00Z,26.0070,-85.6480,5.0,1.5,180.0,,'1111122,1111122,1111122' 
NDBC,ioos:station:wmo:42003:1,2012-12-07T12:00:00Z,26.0070,-85.6480,5.0,1.5,170.0,,'1111122,1111122,1111122' 
NDBC,ioos:station:wmo:42003:1,2012-12-07T13:00:00Z,26.0070,-85.6480,5.0,0.5,190.0,,'1111122,1111122,1111122' 
NDBC,ioos:station:wmo:42003:1,2012-12-07T14:00:00Z,26.0070,-85.6480,5.0,2.6,180.0,,'1111122,1111122,1111122' 
NDBC,ioos:station:wmo:42003:1,2012-12-07T15:00:00Z,26.0070,-85.6480,5.0,1.5,190.0,,'1111122,1111122,1111122' 
NDBC,ioos:station:wmo:42003:1,2012-12-07T16:00:00Z,26.0070,-85.6480,5.0,1.5,180.0,,'1111122,1111122,1111122' 
NDBC,ioos:station:wmo:42003:1,2012-12-07T17:00:00Z,26.0070,-85.6480,5.0,0.5,190.0,,'1111122,1111122,1111122' 
NDBC,ioos:station:wmo:42003:1,2012-12-07T18:00:00Z,26.0070,-85.6480,5.0,2.6,210.0,,'1111122,1111122,1111122' 
NDBC,ioos:station:wmo:42003:1,2012-12-07T19:00:00Z,26.0070,-85.6480,5.0,1.5,230.0,,'1111122,1111122,1111122' 
NDBC,ioos:station:wmo:42003:1,2012-12-07T20:00:00Z,26.0070,-85.6480,5.0,0.5,190.0,,'1111122,1111122,1111122' 
NDBC,ioos:station:wmo:42003:1,2012-12-07T21:00:00Z,26.0070,-85.6480,5.0,1.5,200.0,,'1111122,1111122,1111122' 
NDBC,ioos:station:wmo:42003:1,2012-12-07T22:00:00Z,26.0070,-85.6480,5.0,0.5,210.0,,'1111122,1111122,1111122' 
NDBC,ioos:station:wmo:42003:1,2012-12-07T23:00:00Z,26.0070,-85.6480,5.0,0.5,220.0,,'1111122,1111122,1111122' 
NDBC,ioos:station:wmo:42003:1,2012-12-08T00:00:00Z,26.0070,-85.6480,5.0,0.5,220.0,,'1111122,1111122,1111122' 
NDBC,ioos:station:wmo:42003:1,2012-12-08T02:00:00Z,26.0070,-85.6480,5.0,0.5,180.0,,'1111122,1111122,1111122' 
NDBC,ioos:station:wmo:42003:1,2012-12-08T03:00:00Z,26.0070,-85.6480,5.0,1.5,200.0,,'1111122,1111122,1111122' 
NDBC,ioos:station:wmo:42003:1,2012-12-08T04:00:00Z,26.0070,-85.6480,5.0,1.5,170.0,,'1111122,1111122,1111122' 
NDBC,ioos:station:wmo:42003:1,2012-12-08T05:00:00Z,26.0070,-85.6480,5.0,0.5,180.0,,'1111122,1111122,1111122' 
NDBC,ioos:station:wmo:42003:1,2012-12-08T06:00:00Z,26.0070,-85.6480,5.0,0.5,190.0,,'1111122,1111122,1111122' 
NDBC,ioos:station:wmo:42003:1,2012-12-08T07:00:00Z,26.0070,-85.6480,5.0,0.5,190.0,,'1111122,1111122,1111122' 
NDBC,ioos:station:wmo:42003:1,2012-12-08T08:00:00Z,26.0070,-85.6480,5.0,0.5,150.0,,'1111122,1111122,1111122' 
NDBC,ioos:station:wmo:42003:1,2012-12-08T09:00:00Z,26.0070,-85.6480,5.0,0.5,120.0,,'1111122,1111122,1111122' 
NDBC,ioos:station:wmo:42003:1,2012-12-08T10:00:00Z,26.0070,-85.6480,5.0,0.5,90.0,,'1111122,1111122,1111122' 
NDBC,ioos:station:wmo:42003:1,2012-12-08T11:00:00Z,26.0070,-85.6480,5.0,1.5,100.0,,'1111122,1111122,1111122' 
NDBC,ioos:station:wmo:42003:1,2012-12-08T12:00:00Z,26.0070,-85.6480,5.0,0.5,90.0,,'1111122,1111122,1111122' 
NDBC,ioos:station:wmo:42003:1,2012-12-08T13:00:00Z,26.0070,-85.6480,5.0,1.5,100.0,,'1111122,1111122,1111122' 
NDBC,ioos:station:wmo:42003:1,2012-12-08T14:00:00Z,26.0070,-85.6480,5.0,1.5,100.0,,'1111122,1111122,1111122' 
NDBC,ioos:station:wmo:42003:1,2012-12-08T15:00:00Z,26.0070,-85.6480,5.0,1.5,120.0,,'1111122,1111122,1111122' 
NDBC,ioos:station:wmo:42003:1,2012-12-08T18:00:00Z,26.0070,-85.6480,5.0,0.5,120.0,,'1111122,1111122,1111122' 
NDBC,ioos:station:wmo:42003:1,2012-12-08T19:00:00Z,26.0070,-85.6480,5.0,1.5,120.0,,'1111122,1111122,1111122' 
NDBC,ioos:station:wmo:42003:1,2012-12-08T20:00:00Z,26.0070,-85.6480,5.0,0.5,100.0,,'1111122,1111122,1111122' 
NDBC,ioos:station:wmo:42003:1,2012-12-08T21:00:00Z,26.0070,-85.6480,5.0,1.5,90.0,,'1111122,1111122,1111122' 
NDBC,ioos:station:wmo:42003:1,2012-12-08T22:00:00Z,26.0070,-85.6480,5.0,1.5,110.0,,'1111122,1111122,1111122' 
NDBC,ioos:station:wmo:42003:1,2012-12-08T23:00:00Z,26.0070,-85.6480,5.0,1.5,110.0,,'1111122,1111122,1111122' 
NDBC,ioos:station:wmo:42003:1,2012-12-09T00:00:00Z,26.0070,-85.6480,5.0,2.6,100.0,,'1111122,1111122,1111122' 
NDBC,ioos:station:wmo:42003:1,2012-12-09T01:00:00Z,26.0070,-85.6480,5.0,1.5,70.0,,'1111122,1111122,1111122' 
NDBC,ioos:station:wmo:42003:1,2012-12-09T02:00:00Z,26.0070,-85.6480,5.0,1.5,80.0,,'1111122,1111122,1111122' 
NDBC,ioos:station:wmo:42003:1,2012-12-09T03:00:00Z,26.0070,-85.6480,5.0,2.6,80.0,,'1111122,1111122,1111122' 
NDBC,ioos:station:wmo:42003:1,2012-12-09T04:00:00Z,26.0070,-85.6480,5.0,3.6,100.0,,'1111122,1111122,1111122' 
NDBC,ioos:station:wmo:42003:1,2012-12-09T05:00:00Z,26.0070,-85.6480,5.0,4.6,110.0,,'1111122,1111122,1111122' 
NDBC,ioos:station:wmo:42003:1,2012-12-09T06:00:00Z,26.0070,-85.6480,5.0,3.6,100.0,,'1111122,1111122,1111122' 
NDBC,ioos:station:wmo:42003:1,2012-12-09T07:00:00Z,26.0070,-85.6480,5.0,2.6,90.0,,'1111122,1111122,1111122' 
NDBC,ioos:station:wmo:42003:1,2012-12-09T08:00:00Z,26.0070,-85.6480,5.0,2.6,90.0,,'1111122,1111122,1111122' 
NDBC,ioos:station:wmo:42003:1,2012-12-09T09:00:00Z,26.0070,-85.6480,5.0,3.6,100.0,,'1111122,1111122,1111122' 
NDBC,ioos:station:wmo:42003:1,2012-12-09T10:00:00Z,26.0070,-85.6480,5.0,3.6,110.0,,'1111122,1111122,1111122' 
NDBC,ioos:station:wmo:42003:1,2012-12-09T11:00:00Z,26.0070,-85.6480,5.0,3.6,110.0,,'1111122,1111122,1111122' 
NDBC,ioos:station:wmo:42003:1,2012-12-09T12:00:00Z,26.0070,-85.6480,5.0,3.6,100.0,,'1111122,1111122,1111122' 
NDBC,ioos:station:wmo:42003:1,2012-12-09T13:00:00Z,26.0070,-85.6480,5.0,3.6,110.0,,'1111122,1111122,1111122' 
NDBC,ioos:station:wmo:42003:1,2012-12-09T14:00:00Z,26.0070,-85.6480,5.0,3.6,100.0,,'1111122,1111122,1111122' 
NDBC,ioos:station:wmo:42003:1,2012-12-09T15:00:00Z,26.0070,-85.6480,5.0,3.6,120.0,,'1111122,1111122,1111122' 
NDBC,ioos:station:wmo:42003:1,2012-12-09T16:00:00Z,26.0070,-85.6480,5.0,3.6,110.0,,'1111122,1111122,1111122' 
NDBC,ioos:station:wmo:42003:1,2012-12-09T17:00:00Z,26.0070,-85.6480,5.0,3.6,100.0,,'1111122,1111122,1111122' 
NDBC,ioos:station:wmo:42003:1,2012-12-09T18:00:00Z,26.0070,-85.6480,5.0,3.6,100.0,,'1111122,1111122,1111122' 
NDBC,ioos:station:wmo:42003:1,2012-12-09T19:00:00Z,26.0070,-85.6480,5.0,3.6,110.0,,'1111122,1111122,1111122' 
NDBC,ioos:station:wmo:42003:1,2012-12-09T20:00:00Z,26.0070,-85.6480,5.0,3.6,110.0,,'1111122,1111122,1111122' 
NDBC,ioos:station:wmo:42003:1,2012-12-09T21:00:00Z,26.0070,-85.6480,5.0,3.6,110.0,,'1111122,1111122,1111122' 
NDBC,ioos:station:wmo:42003:1,2012-12-09T22:00:00Z,26.0070,-85.6480,5.0,3.6,110.0,,'1111122,1111122,1111122' 
NDBC,ioos:station:wmo:42003:1,2012-12-09T23:00:00Z,26.0070,-85.6480,5.0,4.6,110.0,,'1111122,1111122,1111122' 
NDBC,ioos:station:wmo:42003:1,2012-12-10T00:00:00Z,26.0070,-85.6480,5.0,3.6,100.0,,'1111122,1111122,1111122' 
NDBC,ioos:station:wmo:42003:1,2012-12-10T16:00:00Z,26.0070,-85.6480,5.0,7.7,180.0,,'1111122,1111122,1111122' 
NDBC,ioos:station:wmo:42003:1,2012-12-10T17:00:00Z,26.0070,-85.6480,5.0,5.7,230.0,,'1111122,1111122,1111122' 
NDBC,ioos:station:wmo:42003:1,2012-12-10T18:00:00Z,26.0070,-85.6480,5.0,2.6,210.0,,'1111122,1111122,1111122' 
NDBC,ioos:station:wmo:42003:1,2012-12-10T19:00:00Z,26.0070,-85.6480,5.0,4.6,180.0,,'1111122,1111122,1111122' 
NDBC,ioos:station:wmo:42003:1,2012-12-10T20:00:00Z,26.0070,-85.6480,5.0,7.7,190.0,,'1111122,1111122,1111122' 
NDBC,ioos:station:wmo:42003:1,2012-12-10T21:00:00Z,26.0070,-85.6480,5.0,7.7,210.0,,'1111122,1111122,1111122' 
NDBC,ioos:station:wmo:42003:1,2012-12-10T22:00:00Z,26.0070,-85.6480,5.0,6.7,240.0,,'1111122,1111122,1111122' 
NDBC,ioos:station:wmo:42003:1,2012-12-10T23:00:00Z,26.0070,-85.6480,5.0,8.7,240.0,,'1111122,1111122,1111122' 
NDBC,ioos:station:wmo:42003:1,2012-12-11T00:00:00Z,26.0070,-85.6480,5.0,5.7,230.0,,'1111122,1111122,1111122' 